KLM923 EHAM-EGPH

Flight info

Callsign KLM923
Flight time 1h 3m
Altitude 36000
Route BERGI L602 SUPUR P1 GODOS DCT ROXAT DCT BAZNA DCT ANMAZ DCT AGPED
Aircraft A320/M-SDE3FGHIRWY/LB1

Departure

Time 2026-05-05 06:13
Airport Amsterdam Airport Schiphol (EHAM)

Arrival

Time 2026-05-05 07:16
Airport Edinburgh Airport (EGPH)
Time Latitude Longitude Altitude Speed Heading
2026-05-05 05:30 52.30786 4.77229 -1 ft 0 kts 183°
2026-05-05 05:52 52.30787 4.77229 -1 ft 0 kts 183°
2026-05-05 06:01 52.30809 4.77229 -1 ft 4 kts 167°
2026-05-05 06:01 52.30833 4.77212 -1 ft 4 kts 132°
2026-05-05 06:01 52.30844 4.77176 -1 ft 3 kts 94°
2026-05-05 06:02 52.30843 4.77199 -1 ft 4 kts 93°
2026-05-05 06:02 52.30842 4.77243 -1 ft 4 kts 93°
2026-05-05 06:02 52.30841 4.77285 -1 ft 2 kts 93°
2026-05-05 06:02 52.30841 4.77287 -1 ft 2 kts 93°
2026-05-05 06:05 52.30840 4.77305 -1 ft 3 kts 93°
2026-05-05 06:05 52.30838 4.77366 -1 ft 8 kts 92°
2026-05-05 06:06 52.30835 4.77471 -1 ft 11 kts 92°
2026-05-05 06:06 52.30856 4.77595 -1 ft 13 kts 39°
2026-05-05 06:06 52.30953 4.77615 -1 ft 15 kts
2026-05-05 06:06 52.31067 4.77624 -1 ft 18 kts
2026-05-05 06:07 52.31197 4.77638 -1 ft 20 kts
2026-05-05 06:07 52.31340 4.77652 -1 ft 22 kts
2026-05-05 06:07 52.31488 4.77596 -1 ft 23 kts 322°
2026-05-05 06:07 52.31577 4.77387 -1 ft 22 kts 277°
2026-05-05 06:08 52.31568 4.77125 -1 ft 24 kts 264°
2026-05-05 06:08 52.31557 4.76840 -1 ft 27 kts 267°
2026-05-05 06:08 52.31549 4.76523 -1 ft 29 kts 267°
2026-05-05 06:08 52.31536 4.76190 -1 ft 30 kts 266°
2026-05-05 06:09 52.31526 4.75894 -1 ft 22 kts 267°
2026-05-05 06:09 52.31521 4.75689 -1 ft 18 kts 267°
2026-05-05 06:09 52.31513 4.75467 -1 ft 21 kts 266°
2026-05-05 06:09 52.31503 4.75213 -1 ft 24 kts 266°
2026-05-05 06:10 52.31494 4.74936 -1 ft 21 kts 266°
2026-05-05 06:10 52.31487 4.74751 -1 ft 13 kts 268°
2026-05-05 06:10 52.31551 4.74662 -1 ft 14 kts 354°
2026-05-05 06:10 52.31641 4.74677 0 ft 12 kts 25°
2026-05-05 06:11 52.31668 4.74771 -1 ft 8 kts 90°
2026-05-05 06:11 52.31669 4.74816 -1 ft 0 kts 87°
2026-05-05 06:12 52.31675 4.75000 -3 ft 51 kts 86°
2026-05-05 06:12 52.31708 4.75958 -2 ft 115 kts 87°
2026-05-05 06:12 52.31760 4.77539 2 ft 162 kts 86°
2026-05-05 06:12 52.31829 4.79395 578 ft 161 kts 76°
2026-05-05 06:13 52.32278 4.81010 1322 ft 156 kts 46°
2026-05-05 06:13 52.33214 4.81904 1925 ft 165 kts 13°
2026-05-05 06:13 52.34437 4.81658 2238 ft 193 kts 343°
2026-05-05 06:13 52.35768 4.80852 2608 ft 214 kts 342°
2026-05-05 06:14 52.37194 4.79973 3309 ft 221 kts 341°
2026-05-05 06:14 52.38626 4.78995 4088 ft 229 kts 329°
2026-05-05 06:14 52.39895 4.77214 4550 ft 253 kts 315°
2026-05-05 06:14 52.41151 4.75144 5212 ft 265 kts 315°
2026-05-05 06:15 52.42457 4.72975 6116 ft 269 kts 314°
2026-05-05 06:15 52.43777 4.70786 6998 ft 272 kts 314°
2026-05-05 06:15 52.45118 4.68579 7896 ft 274 kts 314°
2026-05-05 06:15 52.46548 4.66502 8771 ft 277 kts 324°
2026-05-05 06:16 52.48266 4.65032 9647 ft 281 kts 337°
2026-05-05 06:16 52.50109 4.63856 10308 ft 291 kts 336°
2026-05-05 06:16 52.52070 4.62593 10524 ft 315 kts 336°
2026-05-05 06:16 52.54178 4.61228 10758 ft 335 kts 337°
2026-05-05 06:17 52.56377 4.59801 11328 ft 343 kts 336°
2026-05-05 06:17 52.58611 4.58350 11996 ft 347 kts 336°
2026-05-05 06:17 52.60872 4.56879 12679 ft 352 kts 336°
2026-05-05 06:17 52.63159 4.55391 13369 ft 356 kts 336°
2026-05-05 06:18 52.65455 4.53819 14027 ft 359 kts 331°
2026-05-05 06:18 52.67533 4.51705 14626 ft 359 kts 320°
2026-05-05 06:18 52.69358 4.48893 15233 ft 360 kts 309°
2026-05-05 06:18 52.70827 4.45610 15828 ft 362 kts 303°
2026-05-05 06:19 52.72252 4.42169 16427 ft 365 kts 303°
2026-05-05 06:19 52.73698 4.38692 17052 ft 368 kts 303°
2026-05-05 06:19 52.75122 4.35157 17672 ft 371 kts 298°
2026-05-05 06:19 52.76394 4.31438 18312 ft 374 kts 298°
2026-05-05 06:20 52.77675 4.27681 18876 ft 377 kts 298°
2026-05-05 06:20 52.78960 4.23900 19465 ft 380 kts 297°
2026-05-05 06:20 52.80257 4.20075 20051 ft 383 kts 297°
2026-05-05 06:20 52.81560 4.16222 20637 ft 386 kts 297°
2026-05-05 06:21 52.82874 4.12333 21187 ft 389 kts 297°
2026-05-05 06:21 52.84196 4.08418 21713 ft 391 kts 297°
2026-05-05 06:21 52.85525 4.04478 22221 ft 394 kts 297°
2026-05-05 06:21 52.86866 4.00495 22734 ft 397 kts 297°
2026-05-05 06:22 52.88212 3.96491 23224 ft 400 kts 297°
2026-05-05 06:22 52.89565 3.92453 23694 ft 402 kts 297°
2026-05-05 06:22 52.90923 3.88391 24100 ft 405 kts 297°
2026-05-05 06:22 52.92291 3.84295 24508 ft 407 kts 297°
2026-05-05 06:23 52.93658 3.80191 24902 ft 409 kts 297°
2026-05-05 06:23 52.95015 3.76108 25290 ft 411 kts 297°
2026-05-05 06:23 52.96412 3.71895 25667 ft 413 kts 297°
2026-05-05 06:23 52.97799 3.67707 26039 ft 415 kts 297°
2026-05-05 06:24 52.99249 3.63552 26414 ft 418 kts 302°
2026-05-05 06:24 53.01057 3.59830 26784 ft 423 kts 312°
2026-05-05 06:24 53.03297 3.56610 27149 ft 429 kts 322°
2026-05-05 06:24 53.05887 3.54079 27507 ft 435 kts 332°
2026-05-05 06:25 53.08729 3.52286 27860 ft 439 kts 338°
2026-05-05 06:25 53.11629 3.50635 28222 ft 441 kts 338°
2026-05-05 06:25 53.14541 3.48971 28564 ft 444 kts 338°
2026-05-05 06:25 53.17467 3.47289 28897 ft 446 kts 338°
2026-05-05 06:26 53.20367 3.45481 29355 ft 443 kts 333°
2026-05-05 06:26 53.23043 3.42998 29842 ft 439 kts 323°
2026-05-05 06:26 53.25423 3.39842 30278 ft 436 kts 315°
2026-05-05 06:26 53.27463 3.36119 30657 ft 434 kts 306°
2026-05-05 06:27 53.29158 3.31962 31029 ft 433 kts 301°
2026-05-05 06:27 53.32422 3.23463 31772 ft 435 kts 302°
2026-05-05 06:27 53.34052 3.19203 32159 ft 435 kts 302°
2026-05-05 06:28 53.35677 3.14945 32555 ft 435 kts 302°
2026-05-05 06:28 53.37304 3.10674 32960 ft 435 kts 302°
2026-05-05 06:28 53.38932 3.06403 33353 ft 435 kts 302°
2026-05-05 06:28 53.40562 3.02127 33718 ft 436 kts 303°
2026-05-05 06:29 53.42366 2.98039 34072 ft 437 kts 310°
2026-05-05 06:29 53.44349 2.94182 34386 ft 437 kts 310°
2026-05-05 06:29 53.46334 2.90316 34717 ft 437 kts 310°
2026-05-05 06:29 53.48316 2.86451 35045 ft 437 kts 310°
2026-05-05 06:30 53.50294 2.82583 35365 ft 436 kts 310°
2026-05-05 06:30 53.52268 2.78712 35675 ft 436 kts 309°
2026-05-05 06:30 53.54238 2.74835 35948 ft 437 kts 309°
2026-05-05 06:31 53.58185 2.67057 36012 ft 443 kts 309°
2026-05-05 06:31 53.62192 2.59146 36012 ft 444 kts 309°
2026-05-05 06:32 53.66190 2.51226 36014 ft 443 kts 309°
2026-05-05 06:32 53.70176 2.43296 36013 ft 443 kts 309°
2026-05-05 06:33 53.74160 2.35350 36013 ft 443 kts 309°
2026-05-05 06:33 53.78143 2.27405 36020 ft 443 kts 309°
2026-05-05 06:34 53.82114 2.19440 36026 ft 443 kts 309°
2026-05-05 06:34 53.86052 2.11504 36029 ft 443 kts 309°
2026-05-05 06:35 53.90006 2.03499 36034 ft 442 kts 309°
2026-05-05 06:35 53.93951 1.95494 36033 ft 442 kts 308°
2026-05-05 06:36 53.97891 1.87485 36034 ft 442 kts 308°
2026-05-05 06:36 54.01824 1.79474 36031 ft 441 kts 308°
2026-05-05 06:37 54.05750 1.71454 36032 ft 441 kts 308°
2026-05-05 06:37 54.09664 1.63426 36032 ft 440 kts 308°
2026-05-05 06:38 54.13567 1.55382 36030 ft 440 kts 308°
2026-05-05 06:38 54.17452 1.47334 36029 ft 439 kts 306°
2026-05-05 06:39 54.20495 1.38461 36027 ft 436 kts 295°
2026-05-05 06:39 54.23168 1.29158 36025 ft 436 kts 295°
2026-05-05 06:40 54.25844 1.19859 36023 ft 435 kts 295°
2026-05-05 06:40 54.28501 1.10562 36020 ft 435 kts 295°
2026-05-05 06:41 54.31151 1.01255 36020 ft 434 kts 295°
2026-05-05 06:41 54.33793 0.91952 36022 ft 434 kts 295°
2026-05-05 06:42 54.36411 0.82698 36024 ft 434 kts 295°
2026-05-05 06:42 54.39053 0.73323 36024 ft 433 kts 294°
2026-05-05 06:43 54.41649 0.64074 36025 ft 433 kts 294°
2026-05-05 06:43 54.44250 0.54748 36023 ft 433 kts 294°
2026-05-05 06:44 54.46420 0.46929 36023 ft 432 kts 294°
2026-05-05 06:44 54.48991 0.37661 36028 ft 432 kts 294°
2026-05-05 06:45 54.51570 0.28339 36015 ft 432 kts 294°
2026-05-05 06:45 54.54131 0.18990 36032 ft 431 kts 294°
2026-05-05 06:46 54.56695 0.09660 36030 ft 431 kts 294°
2026-05-05 06:46 54.59325 0.00374 36030 ft 430 kts 295°
2026-05-05 06:47 54.61965 -0.08888 36028 ft 430 kts 295°
2026-05-05 06:47 54.64582 -0.18174 36034 ft 430 kts 294°
2026-05-05 06:48 54.67174 -0.27459 36033 ft 429 kts 294°
2026-05-05 06:48 54.69755 -0.36755 36033 ft 429 kts 294°
2026-05-05 06:49 54.72327 -0.46047 36034 ft 428 kts 294°
2026-05-05 06:49 54.74896 -0.55338 36038 ft 428 kts 294°
2026-05-05 06:50 54.77438 -0.64582 36036 ft 427 kts 294°
2026-05-05 06:50 54.79985 -0.73885 36039 ft 427 kts 294°
2026-05-05 06:51 54.82523 -0.83200 36044 ft 427 kts 294°
2026-05-05 06:51 54.85055 -0.92505 36041 ft 426 kts 294°
2026-05-05 06:52 54.87578 -1.01812 36042 ft 426 kts 294°
2026-05-05 06:52 54.90089 -1.11145 35856 ft 425 kts 293°
2026-05-05 06:52 54.91338 -1.15800 35605 ft 424 kts 293°
2026-05-05 06:53 54.92582 -1.20443 35359 ft 424 kts 293°
2026-05-05 06:53 54.93824 -1.25088 35109 ft 423 kts 293°
2026-05-05 06:53 54.95063 -1.29730 34868 ft 423 kts 293°
2026-05-05 06:53 54.96303 -1.34380 34627 ft 423 kts 293°
2026-05-05 06:54 54.97520 -1.38957 34382 ft 422 kts 293°
2026-05-05 06:54 54.98747 -1.43594 34153 ft 422 kts 293°
2026-05-05 06:54 54.99972 -1.48228 33830 ft 421 kts 293°
2026-05-05 06:54 55.01200 -1.52877 32895 ft 424 kts 293°
2026-05-05 06:55 55.02437 -1.57566 32042 ft 425 kts 293°
2026-05-05 06:55 55.03673 -1.62261 31181 ft 427 kts 293°
2026-05-05 06:55 55.04911 -1.66971 30239 ft 429 kts 293°
2026-05-05 06:55 55.06161 -1.71732 29177 ft 432 kts 293°
2026-05-05 06:56 55.07407 -1.76490 28412 ft 428 kts 292°
2026-05-05 06:56 55.08627 -1.81164 27869 ft 419 kts 292°
2026-05-05 06:56 55.09811 -1.85716 27246 ft 414 kts 292°
2026-05-05 06:56 55.11007 -1.90320 26638 ft 409 kts 292°
2026-05-05 06:57 55.12175 -1.94750 26038 ft 405 kts 295°
2026-05-05 06:57 55.13552 -1.99039 25391 ft 405 kts 297°
2026-05-05 06:57 55.14960 -2.03305 24738 ft 404 kts 297°
2026-05-05 06:57 55.16362 -2.07554 24093 ft 402 kts 297°
2026-05-05 06:58 55.17751 -2.11770 23417 ft 399 kts 297°
2026-05-05 06:58 55.19135 -2.15971 22723 ft 396 kts 298°
2026-05-05 06:58 55.20501 -2.20119 22096 ft 391 kts 298°
2026-05-05 06:58 55.21848 -2.24234 21466 ft 388 kts 298°
2026-05-05 06:59 55.23181 -2.28317 20843 ft 385 kts 298°
2026-05-05 06:59 55.24506 -2.32378 20231 ft 383 kts 298°
2026-05-05 06:59 55.25825 -2.36429 19612 ft 382 kts 298°
2026-05-05 06:59 55.27136 -2.40467 19000 ft 381 kts 298°
2026-05-05 07:00 55.28446 -2.44511 18387 ft 380 kts 298°
2026-05-05 07:00 55.29750 -2.48542 17710 ft 379 kts 298°
2026-05-05 07:00 55.31030 -2.52505 17124 ft 377 kts 298°
2026-05-05 07:00 55.32319 -2.56496 16517 ft 374 kts 298°
2026-05-05 07:01 55.33596 -2.60454 15917 ft 371 kts 298°
2026-05-05 07:01 55.34861 -2.64376 15333 ft 368 kts 298°
2026-05-05 07:01 55.36118 -2.68287 14735 ft 365 kts 298°
2026-05-05 07:01 55.37359 -2.72153 14149 ft 361 kts 298°
2026-05-05 07:02 55.38588 -2.75989 13547 ft 358 kts 299°
2026-05-05 07:02 55.39798 -2.79772 13041 ft 351 kts 299°
2026-05-05 07:02 55.40967 -2.83425 12902 ft 334 kts 299°
2026-05-05 07:02 55.42079 -2.86911 12770 ft 320 kts 298°
2026-05-05 07:03 55.43143 -2.90251 12643 ft 306 kts 298°
2026-05-05 07:03 55.44163 -2.93463 12502 ft 295 kts 298°
2026-05-05 07:03 55.45194 -2.96511 12338 ft 286 kts 306°
2026-05-05 07:03 55.46557 -2.99009 12069 ft 282 kts 321°
2026-05-05 07:04 55.48241 -3.00767 11809 ft 282 kts 335°
2026-05-05 07:04 55.50107 -3.01868 11417 ft 284 kts 340°
2026-05-05 07:04 55.52005 -3.02906 10954 ft 286 kts 340°
2026-05-05 07:04 55.53874 -3.03928 10641 ft 284 kts 340°
2026-05-05 07:05 55.55774 -3.04972 10265 ft 284 kts 341°
2026-05-05 07:05 55.57641 -3.06002 9792 ft 279 kts 341°
2026-05-05 07:05 55.59484 -3.07025 9131 ft 277 kts 341°
2026-05-05 07:05 55.61302 -3.08037 8651 ft 272 kts 341°
2026-05-05 07:06 55.63123 -3.09051 8204 ft 276 kts 341°
2026-05-05 07:06 55.64954 -3.10070 7882 ft 274 kts 341°
2026-05-05 07:06 55.66766 -3.11081 7368 ft 271 kts 341°
2026-05-05 07:06 55.68517 -3.12060 7198 ft 258 kts 342°
2026-05-05 07:07 55.70204 -3.13003 7062 ft 251 kts 342°
2026-05-05 07:07 55.71848 -3.13917 6933 ft 244 kts 344°
2026-05-05 07:07 55.73528 -3.14277 6845 ft 245 kts
2026-05-05 07:07 55.75185 -3.13622 6707 ft 245 kts 22°
2026-05-05 07:08 55.76714 -3.12261 6555 ft 246 kts 26°
2026-05-05 07:08 55.78214 -3.10901 6354 ft 245 kts 26°
2026-05-05 07:08 55.79749 -3.09523 6159 ft 244 kts 25°
2026-05-05 07:08 55.81247 -3.08187 5985 ft 243 kts 26°
2026-05-05 07:09 55.82759 -3.06842 5843 ft 243 kts 26°
2026-05-05 07:09 55.84269 -3.05501 5696 ft 243 kts 25°
2026-05-05 07:09 55.85860 -3.04550 5540 ft 241 kts
2026-05-05 07:09 55.87513 -3.04032 5376 ft 241 kts
2026-05-05 07:10 55.89164 -3.03508 5215 ft 241 kts
2026-05-05 07:10 55.90810 -3.02978 5054 ft 240 kts
2026-05-05 07:10 55.92456 -3.02448 4892 ft 240 kts
2026-05-05 07:10 55.94100 -3.01940 4726 ft 239 kts
2026-05-05 07:11 55.95752 -3.01984 4560 ft 237 kts 352°
2026-05-05 07:11 55.97385 -3.02375 4414 ft 235 kts 352°
2026-05-05 07:11 55.98981 -3.02746 4253 ft 227 kts 352°
2026-05-05 07:11 56.00463 -3.03506 4105 ft 218 kts 334°
2026-05-05 07:12 56.01678 -3.05015 3981 ft 209 kts 316°
2026-05-05 07:12 56.02543 -3.07066 3881 ft 208 kts 298°
2026-05-05 07:12 56.03017 -3.09496 3794 ft 209 kts 281°
2026-05-05 07:12 56.03047 -3.12098 3705 ft 211 kts 263°
2026-05-05 07:13 56.02610 -3.14646 3318 ft 223 kts 243°
2026-05-05 07:13 56.01792 -3.17104 2709 ft 234 kts 242°
2026-05-05 07:13 56.00959 -3.19569 2311 ft 228 kts 242°
2026-05-05 07:13 56.00160 -3.21941 1977 ft 215 kts 242°
2026-05-05 07:14 55.99438 -3.24084 1727 ft 193 kts 242°
2026-05-05 07:14 55.98777 -3.26044 1433 ft 174 kts 242°
2026-05-05 07:14 55.98187 -3.27796 1226 ft 154 kts 242°
2026-05-05 07:14 55.97659 -3.29364 997 ft 142 kts 242°
2026-05-05 07:15 55.97157 -3.30853 793 ft 139 kts 241°
2026-05-05 07:15 55.96673 -3.32337 596 ft 138 kts 241°
2026-05-05 07:15 55.96173 -3.33790 387 ft 136 kts 241°
2026-05-05 07:15 55.95683 -3.35232 210 ft 135 kts 240°
2026-05-05 07:16 55.95215 -3.36636 114 ft 118 kts 238°
2026-05-05 07:16 55.94876 -3.37618 112 ft 68 kts 238°
2026-05-05 07:16 55.94743 -3.38002 113 ft 16 kts 237°
2026-05-05 07:16 55.94690 -3.38057 114 ft 11 kts 168°
2026-05-05 07:17 55.94624 -3.37982 115 ft 12 kts 146°
2026-05-05 07:17 55.94588 -3.37922 114 ft 5 kts 105°
2026-05-05 07:17 55.94602 -3.37851 114 ft 8 kts 59°
2026-05-05 07:17 55.94636 -3.37757 114 ft 11 kts 57°
2026-05-05 07:18 55.94680 -3.37629 114 ft 14 kts 58°
2026-05-05 07:18 55.94736 -3.37464 115 ft 17 kts 60°
2026-05-05 07:18 55.94802 -3.37262 115 ft 20 kts 59°
2026-05-05 07:18 55.94878 -3.37041 113 ft 17 kts 58°
2026-05-05 07:19 55.94926 -3.36889 116 ft 12 kts 74°
2026-05-05 07:19 55.94905 -3.36800 114 ft 7 kts 132°
2026-05-05 07:19 55.94910 -3.36706 115 ft 9 kts 64°
2026-05-05 07:19 55.94942 -3.36608 116 ft 9 kts 58°
2026-05-05 07:20 55.94971 -3.36523 115 ft 5 kts 61°
2026-05-05 07:20 55.94958 -3.36474 116 ft 4 kts 136°
2026-05-05 07:20 55.94938 -3.36449 115 ft 3 kts 148°
2026-05-05 07:20 55.94926 -3.36436 114 ft 1 kts 148°
2026-05-05 07:21 55.94921 -3.36431 115 ft 0 kts 148°